Regional Weather Roundup
Issued by NWS San Angelo, TX

Home | Current Version | Previous Version | Text Only | Print | Product List | Glossary On
Versions: 1 2 3 4 5 6 7 8 9 10 11 12 13 14 15 16 17 18 19 20 21 22 23 24 25 26 27 28 29 30 31 32 33 34 35 36 37 38 39 40 41 42 43 44 45 46 47 48 49 50
000
ASUS44 KSJT 282302
RWRSJT
WEST CENTRAL TEXAS REGIONAL WEATHER ROUNDUP
NATIONAL WEATHER SERVICE SAN ANGELO TX
600 PM CDT FRI AUG 28 2015

NOTE: "FAIR" INDICATES FEW OR NO CLOUDS BELOW 12,000 FEET WITH NO
SIGNIFICANT WEATHER AND/OR OBSTRUCTIONS TO VISIBILITY.

TXZ049-054-064>066-071>073-076>078-098-099-113-114-127-128-139-140-
154-155-168>170-290000
...LOCATIONS ACROSS WEST CENTRAL TEXAS...

CITY           SKY/WX    TMP DP  RH WIND       PRES   REMARKS
SAN ANGELO     SUNNY     99  43  14 S13       29.91F
ABILENE        MOSUNNY   98  50  19 S15       29.91F
DYESS AFB      MOSUNNY  100  47  16 S9        29.90F
JUNCTION       SUNNY     97  44  16 S7        29.93F
SWEETWATER     SUNNY     98  39  13 SE14G20   29.96S
BROWNWOOD      NOT AVBL
COLEMAN        CLEAR     98  53  21 SE8       29.93S
SONORA         SUNNY     97  45  16 VRB7G15   29.99F
OZONA          FAIR      97  39  13 S13       29.98S
BRADY          SUNNY     99  48  18 SE8       29.93S
$$

TEXAS PANHANDLE/OKLAHOMA PANHANDLE

CITY           SKY/WX    TMP DP  RH WIND       PRES   REMARKS
AMARILLO       MOSUNNY   87  60  40 NE13G20   30.05S
BORGER         SUNNY     92  55  28 NE10      30.01S
CANADIAN       SUNNY     94  56  27 N3        29.95S
DALHART        PTSUNNY   87  54  32 E9        30.09S
DUMAS          CLEAR     87  56  34 NE13      30.06S
GUYMON         NOT AVBL
HEREFORD       NOT AVBL
PAMPA          CLEAR     90  60  36 NE9       30.03S
PERRYTON       NOT AVBL
$$

SOUTHERN PANHANDLE/SOUTH PLAINS/ROLLING PLAINS

CITY           SKY/WX    TMP DP  RH WIND       PRES   REMARKS
LUBBOCK        PTSUNNY   92  53  26 S12       29.97F
SNYDER         SUNNY     98  41  14 S12G17    29.93F
CHILDRESS      MOSUNNY   89  61  38 E12G18    29.92S
SEMINOLE       LGT RAIN  79  58  48 SW9G17    30.03S
$$

PERMIAN BASIN

CITY           SKY/WX    TMP DP  RH WIND       PRES   REMARKS
MIDLAND        MOSUNNY   98  47  17 S12G21    29.93F
ODESSA         MOSUNNY   98  47  17 S16G23    29.94F
WINK           MOSUNNY  101  48  16 VRB6      29.88F
$$

FAR WEST/SOUTHWEST MOUNTAINS/TRANS PECOS

CITY           SKY/WX    TMP DP  RH WIND       PRES   REMARKS
ALPINE         PTCLDY    94  45  18 E6        30.09F
DRYDEN           N/A    100  42  13 SE12G20   29.90F
EL PASO        MOSUNNY   98  49  18 N8        29.97F
FORT STOCKTON  SUNNY     98  51  20 E18G25    29.92F
GUADALUPE PASS LGT RAIN  74  56  53 E20       30.17R
MARFA          MOSUNNY   90  48  24 NE9       30.09F
PECOS          NOT AVBL
$$

DALLAS/FORT WORTH METROPLEX

CITY           SKY/WX    TMP DP  RH WIND       PRES   REMARKS
DFW AIRPORT    PTSUNNY   96  62  32 E14       29.90F
FTW MEACHAM    SUNNY     97  61  30 SE13      29.90F
DAL-EXECUTIVE  SUNNY     94  62  34 SE14G21   29.91S
GRAND PRAIRIE  NOT AVBL
ADDISON        NOT AVBL
MESQUITE       CLEAR     93  61  33 SE9       29.93R
LANCASTER      CLEAR     94  60  31 SE8       29.93S
$$

NORTH CENTRAL TEXAS

CITY           SKY/WX    TMP DP  RH WIND       PRES   REMARKS
SHRMAN/DENISON PTCLDY    95  65  36 S8        29.94S
GAINESVILLE    NOT AVBL
BRIDGEPORT     MOCLDY    95  64  35 SE5       29.92F
DENTON         MOSUNNY   94  63  35 SE10      29.91S
WAXAHACHIE     CLEAR     94  63  36 SE9       29.94S
GRANBURY       NOT AVBL
$$

WESTERN NORTH TEXAS

CITY           SKY/WX    TMP DP  RH WIND       PRES   REMARKS
WICHITA FALLS  CLOUDY    91  66  43 SE10      29.91S
VERNON         CLOUDY    94  50  22 NE7       29.93R
BRECKENRIDGE   MOCLDY    96  57  26 SE12      29.91R HAZE
COMANCHE       SUNNY     97  59  27 E13       29.93S
$$

CENTRAL AND SOUTH CENTRAL TEXAS

CITY           SKY/WX    TMP DP  RH WIND       PRES   REMARKS
AUSTIN/BERGSTM MOSUNNY   94  57  28 VRB7      29.92S
WACO           SUNNY     95  58  28 SE10      29.92F
HILLSBORO      NOT AVBL
TEMPLE         SUNNY     93  59  31 SE10      29.93S
KILLEEN-GRAY   SUNNY     95  56  26 SE10      29.92F
FORT HOOD      SUNNY     94  58  30 SE12      29.92S
GEORGETOWN     SUNNY     95  55  26 SE7       29.94S
LAGO VISTA     FAIR      95  52  23 SE6       29.96S
SAN MARCOS     SUNNY     93  59  31 S7        29.94S
NEW BRAUNFELS  SUNNY     95  61  32 S12G17    29.92S
RANDOLPH AFB   SUNNY     93  57  29 S7        29.93F
SAN ANTONIO    MOSUNNY   94  58  29 S12       29.94F
STINSON        SUNNY     95  59  30 S10       29.91S
PLEASANTON     NOT AVBL
LA GRANGE      SUNNY     93  65  39 CALM      29.92S
GIDDINGS       NOT AVBL
$$

EAST TEXAS

CITY           SKY/WX    TMP DP  RH WIND       PRES   REMARKS
PARIS          PTSUNNY   88  59  37 S12       29.94F
CLARKSVILLE    NOT AVBL
TYLER          SUNNY     89  63  41 S8        29.95F
LONGVIEW       SUNNY     87  62  43 SE5       29.95F
PALESTINE      CLEAR     92  61  35 E5        29.95F
NACOGDOCHES    SUNNY     90  61  37 SE8       29.94F
$$

TEXAS HILL COUNTRY AND EDWARDS PLATEAU

CITY           SKY/WX    TMP DP  RH WIND       PRES   REMARKS
LLANO          NOT AVBL
HORSESHOE BAY  FAIR      97  52  21 S6        29.93S
KERRVILLE      SUNNY     93  51  24 SE12      29.97F
FREDERICKSBRG  NOT AVBL
ROCKSPRINGS    CLEAR     93  50  22 SE12      30.01F
HONDO          SUNNY     94  55  26 S8        29.95F
UVALDE         CLEAR     95  56  26 SE9G16    29.92F
DEL RIO        MOSUNNY   97  50  20 SE13      29.88F
$$

SOUTHEAST TEXAS

CITY           SKY/WX    TMP DP  RH WIND       PRES   REMARKS
COLLEGE STN    SUNNY     92  64  39 SE10      29.94S
CALDWELL       NOT AVBL
CROCKETT       CLEAR     93  59  31 NE8       29.96S
BRENHAM        SUNNY     91  65  43 SE6       29.95S
HUNTSVILLE     SUNNY     92  64  39 S9        29.93F
CONROE         SUNNY     89  63  41 S8        29.94F
HOUSTON BUSH   MOSUNNY   89  65  44 E9        29.94F
HOUSTON HOBBY  MOSUNNY   88  68  51 S7        29.93F
PERLAND        MOSUNNY   90  66  45 SE8       29.95F
WHARTON        CLEAR     89  64  43 SE3       29.95F
$$

THE UPPER TEXAS COAST

CITY           SKY/WX    TMP DP  RH WIND       PRES   REMARKS
ORANGE         PTCLDY    87  57  35 CALM      29.96F
PORT ARTHUR    SUNNY     87  69  54 S6        29.94F
GALVESTON      SUNNY     86  69  56 SE10      29.96F
ANGLETON       SUNNY     87  70  56 SE8       29.95F
BAY CITY       PTCLDY    87  69  55 SE6       29.95S
$$

TEXAS COASTAL BEND, RIO GRANDE PLAINS DEEP SOUTH TEXAS

CITY           SKY/WX    TMP DP  RH WIND       PRES   REMARKS
VICTORIA       MOSUNNY   90  67  46 SE10      29.95R
BEEVILLE       FAIR      90  68  48 SE9       29.94S
ROCKPORT       SUNNY     87  65  47 SE9       29.95S
PORT ARANSAS   CLEAR     86  66  52 SE6       29.95F
PORT LAVACA    NOT AVBL
CORPUS CHRISTI MOSUNNY   89  64  43 SE12      29.95S
KINGSVILLE NAS SUNNY     89  67  47 SE17G23   29.94S
COTULLA        MOSUNNY   98  52  21 SE8       29.90F
LAREDO         SUNNY     99  51  19 SE8       29.91F
BROWNSVILLE    MOSUNNY   87  67  51 E13       29.93S
PORT ISABEL    SUNNY     88  68  51 E13       29.93F
HEBBRONVILLE   NOT AVBL
MCALLEN        SUNNY     94  68  42 E12       29.91F
WESLACO        SUNNY     91  66  44 E12G18    29.92S
FALFURRIAS     PTCLDY    91  65  41 SE9G16    29.92S
EDINBURG       PTCLDY    92  63  37 SE13G18   29.92S
$$



USA.gov is the U.S. government's official web portal to all federal, state and local government web resources and services.